Weather History for Tekamah, NE

Change the Weather History Date:

Wednesday, October 12, 2011

  Actual Average Record
Temperature  
Mean Temperature 62 °F -  
Max Temperature 73 °F 69 °F 94 °F (1975)
Min Temperature 53 °F 41 °F 21 °F (1987)
Degree Days  
Heating Degree Days 3    
Growing Degree Days 12 (Base 50)    
Moisture  
Dew Point 53 °F    
Average Humidity 75    
Maximum Humidity 96    
Minimum Humidity 50    
Precipitation  
Precipitation 0.09 in - - ()
Sea Level Pressure  
Sea Level Pressure 29.71 in    
Wind  
Wind Speed 4 mph (NW)    
Max Wind Speed 16 mph    
Max Gust Speed 23 mph    
Visibility 8 miles    
Events Rain , Thunderstorm    
Averages and records for this station are not official NWS values.
T = Trace of Precipitation, MM = Missing Value Source: NWS Daily Summary

Daily Weather History Graph

Daily Weather History Graph

Search for Another Location

Airport:

Trip Planner

Search our weather history database for the weather conditions in past years. The results will help you decide how hot, cold, wet, or windy it might be!

Date:

Astronomy

Oct. 12, 2011 Rise Set
Actual Time 7:33 AM CDT 6:48 PM CDT
Civil Twilight 7:05 AM CDT 7:16 PM CDT
Nautical Twilight 6:33 AM CDT 7:48 PM CDT
Astronomical Twilight 6:00 AM CDT 8:20 PM CDT
Moon 6:49 PM CDT (10/12) 8:10 AM CDT (10/12)
Length of Visible Light 12h 11m
Length of Day
11h 15m
Full, 100% of the Moon is Illuminated
Oct 12
Full
Oct 19
Last Quarter
Oct 26
New
Nov 2
First Quarter
Nov 10
Full

Hourly Weather History & Observations

Time (CDT) Temp. Dew Point Humidity Pressure Visibility Wind Dir Wind Speed Gust Speed Precip Events Conditions
12:54 AM 61.0 °F 50.0 °F 67% 29.72 in 10.0 mi Calm Calm - N/A   Overcast
1:54 AM 57.9 °F 50.0 °F 75% 29.70 in 10.0 mi ESE 3.5 mph - N/A   Scattered Clouds
2:54 AM 59.0 °F 52.0 °F 78% 29.71 in 10.0 mi WNW 4.6 mph - N/A   Overcast
3:54 AM 59.0 °F 52.0 °F 78% 29.70 in 10.0 mi Calm Calm - 0.00 in Rain Light Rain
4:54 AM 57.9 °F 54.0 °F 87% 29.69 in 10.0 mi SE 6.9 mph - 0.00 in Rain Light Rain
5:54 AM 57.9 °F 55.0 °F 90% 29.69 in 10.0 mi Calm Calm - 0.06 in Rain Light Rain
6:54 AM 55.9 °F 53.1 °F 90% 29.68 in 9.0 mi NNW 3.5 mph - 0.01 in   Clear
7:54 AM 53.1 °F 52.0 °F 96% 29.69 in 4.0 mi North 3.5 mph - N/A   Partly Cloudy
8:54 AM 55.9 °F 54.0 °F 93% 29.69 in 4.0 mi Calm Calm - N/A   Clear
10:54 AM 62.1 °F 57.0 °F 84% 29.70 in 6.0 mi Calm Calm - N/A   Haze
11:07 AM 62.6 °F 57.2 °F 82% 29.73 in 7.0 mi WNW 3.5 mph - N/A   Overcast
11:31 AM 62.6 °F 57.2 °F 82% 29.73 in 7.0 mi Calm Calm - N/A   Overcast
11:41 AM 62.6 °F 55.4 °F 77% 29.73 in 5.0 mi Calm Calm - N/A   Haze
11:54 AM 63.0 °F 57.0 °F 81% 29.71 in 5.0 mi Calm Calm - N/A   Haze
12:02 PM 62.6 °F 57.2 °F 82% 29.73 in 9.0 mi WSW 3.5 mph - N/A   Overcast
12:54 PM - - N/A% 29.73 in - North - - N/A   Unknown
1:38 PM 68.0 °F 55.4 °F 64% 29.71 in 7.0 mi Variable 4.6 mph - N/A   Overcast
2:01 PM 69.8 °F 55.4 °F 60% 29.71 in 10.0 mi Calm Calm - N/A   Overcast
2:54 PM 69.1 °F 54.0 °F 58% 29.66 in 10.0 mi NW 4.6 mph - N/A   Scattered Clouds
3:31 PM 71.6 °F 51.8 °F 50% 29.69 in 10.0 mi NNW 10.4 mph - N/A Thunderstorm Mostly Cloudy
3:36 PM 69.8 °F 53.6 °F 56% 29.69 in 1.5 mi NW 12.7 mph 17.3 mph N/A Thunderstorm Haze
3:46 PM 62.6 °F 55.4 °F 77% 29.70 in 3.0 mi WNW 11.5 mph - 0.00 in Rain , Thunderstorm Light Thunderstorms and Rain
4:23 PM 60.8 °F 57.2 °F 88% 29.70 in 6.0 mi WNW 5.8 mph - 0.01 in Rain Light Rain
4:54 PM 61.0 °F 57.9 °F 90% 29.69 in 6.0 mi Calm Calm - 0.02 in Rain Light Rain
5:54 PM 64.9 °F 53.1 °F 65% 29.70 in 10.0 mi NW 16.1 mph 23.0 mph 0.00 in   Mostly Cloudy
6:54 PM 63.0 °F 48.9 °F 60% 29.72 in 10.0 mi NW 9.2 mph - N/A   Partly Cloudy
7:54 PM 60.1 °F 48.0 °F 64% 29.74 in 10.0 mi WNW 6.9 mph - N/A   Clear
8:54 PM 60.1 °F 48.0 °F 64% 29.75 in 10.0 mi WNW 11.5 mph - N/A   Clear
9:54 PM 60.1 °F 46.0 °F 60% 29.75 in 10.0 mi WNW 12.7 mph 19.6 mph N/A   Clear
11:54 PM 57.0 °F 45.0 °F 64% 29.77 in 10.0 mi WNW 9.2 mph - N/A   Clear